| time (UTC) | temp F | wind direction | speed knots | gust knots | rain 1hr in | rain 24hr in | rain mn in | humidity % | barometer mb |
| 20260503072821 | 60 | 128 | 2.6 | 6.1 | 0.00 | 0.00 | 0.00 | 60 | 1020.6 |
| 20260503072348 | 60 | 140 | 1.7 | 5.2 | 0.00 | 0.00 | 0.00 | 62 | 1020.6 |
| 20260503071825 | 60 | 165 | 2.6 | 4.3 | 0.00 | 0.00 | 0.00 | 61 | 1020.7 |
| 20260503071323 | 60 | 136 | 2.6 | 3.5 | 0.00 | 0.00 | 0.00 | 63 | 1020.7 |
| 20260503070821 | 59 | 115 | 0.9 | 5.2 | 0.00 | 0.00 | 0.00 | 61 | 1020.8 |
| 20260503070321 | 59 | 95 | 2.6 | 6.1 | 0.00 | 0.00 | 0.00 | 61 | 1020.8 |
| 20260503060330 | 59 | 109 | 0.9 | 3.5 | 0.00 | 0.00 | 0.00 | 63 | 1020.9 |
| 20260503054826 | 58 | 111 | 1.7 | 2.6 | 0.00 | 0.00 | 0.00 | 68 | 1020.8 |
| 20260503054325 | 58 | 34 | 1.7 | 2.6 | 0.00 | 0.00 | 0.00 | 65 | 1020.9 |
| 20260503053826 | 58 | 33 | 1.7 | 3.5 | 0.00 | 0.00 | 0.00 | 65 | 1020.7 |
| 20260503053343 | 58 | 86 | 1.7 | 4.3 | 0.00 | 0.00 | 0.00 | 67 | 1020.8 |
| 20260503052821 | 58 | 263 | 2.6 | 5.2 | 0.00 | 0.00 | 0.00 | 62 | 1020.8 |
| 20260503052317 | 58 | 254 | 3.5 | 7.8 | 0.00 | 0.00 | 0.00 | 63 | 1020.8 |
| 20260503051817 | 58 | 270 | 3.5 | 7.8 | 0.00 | 0.00 | 0.00 | 62 | 1020.8 |
| 20260503051336 | 57 | 254 | 2.6 | 4.3 | 0.00 | 0.00 | 0.00 | 63 | 1020.7 |
| 20260503050815 | 57 | 208 | 2.6 | 4.3 | 0.00 | 0.00 | 0.00 | 63 | 1020.8 |
| 20260503050315 | 56 | 250 | 1.7 | 3.5 | 0.00 | 0.00 | 0.00 | 66 | 1020.8 |
| 20260503045814 | 56 | 311 | 1.7 | 3.5 | 0.00 | 0.00 | 0.00 | 66 | 1020.9 |
| 20260503045334 | 55 | 316 | 1.7 | 4.3 | 0.00 | 0.00 | 0.00 | 66 | 1020.9 |
| 20260503044814 | 55 | 279 | 3.5 | 4.3 | 0.00 | 0.00 | 0.00 | 66 | 1021.0 |
| 20260503044314 | 55 | 282 | 3.5 | 4.3 | 0.00 | 0.00 | 0.00 | 66 | 1020.8 |
| 20260503043815 | 55 | 278 | 3.5 | 4.3 | 0.00 | 0.00 | 0.00 | 65 | 1020.9 |
| 20260503043333 | 56 | 286 | 1.7 | 3.5 | 0.00 | 0.00 | 0.00 | 65 | 1021.0 |
| 20260503042833 | 56 | 298 | 1.7 | 3.5 | 0.00 | 0.00 | 0.00 | 64 | 1021.0 |
| 20260503042333 | 56 | 284 | 1.7 | 4.3 | 0.00 | 0.00 | 0.00 | 63 | 1020.9 |
| 20260503041832 | 56 | 183 | 1.7 | 5.2 | 0.00 | 0.00 | 0.00 | 63 | 1020.9 |
| 20260503041332 | 56 | 333 | 3.5 | 6.1 | 0.00 | 0.00 | 0.00 | 64 | 1021.0 |
| 20260503040831 | 56 | 265 | 4.3 | 7.8 | 0.00 | 0.00 | 0.00 | 64 | 1020.9 |
| 20260503040331 | 56 | 271 | 5.2 | 7.8 | 0.00 | 0.00 | 0.00 | 64 | 1020.8 |
| 20260503035829 | 56 | 271 | 4.3 | 6.1 | 0.00 | 0.00 | 0.00 | 64 | 1020.9 |
| 20260503035330 | 56 | 281 | 3.5 | 6.1 | 0.00 | 0.00 | 0.00 | 64 | 1020.9 |
| 20260503034829 | 56 | 275 | 3.5 | 6.1 | 0.00 | 0.00 | 0.00 | 64 | 1020.8 |
| 20260503034330 | 56 | 305 | 1.7 | 4.3 | 0.00 | 0.00 | 0.00 | 64 | 1020.8 |
| 20260503033849 | 56 | 121 | 1.7 | 4.3 | 0.00 | 0.00 | 0.00 | 64 | 1021.0 |
| 20260503033327 | 56 | 5 | 1.7 | 4.3 | 0.00 | 0.00 | 0.00 | 65 | 1021.0 |
| 20260503032827 | 56 | 304 | 2.6 | 6.1 | 0.00 | 0.00 | 0.00 | 65 | 1020.9 |
| 20260503032347 | 56 | 291 | 4.3 | 6.1 | 0.00 | 0.00 | 0.00 | 65 | 1021.0 |
| 20260503031826 | 56 | 267 | 4.3 | 5.2 | 0.00 | 0.00 | 0.00 | 64 | 1021.1 |
| 20260503031325 | 56 | 284 | 3.5 | 4.3 | 0.00 | 0.00 | 0.00 | 65 | 1021.1 |
| 20260503030825 | 56 | 318 | 1.7 | 4.3 | 0.00 | 0.00 | 0.00 | 64 | 1021.1 |
| 20260503030325 | 56 | 292 | 1.7 | 4.3 | 0.00 | 0.00 | 0.00 | 64 | 1021.2 |
| 20260503025826 | 56 | 323 | 2.6 | 4.3 | 0.00 | 0.00 | 0.00 | 64 | 1021.1 |
| 20260503025325 | 56 | 335 | 1.7 | 3.5 | 0.00 | 0.00 | 0.00 | 64 | 1021.2 |
| 20260503024825 | 56 | 310 | 1.7 | 3.5 | 0.00 | 0.00 | 0.00 | 64 | 1021.2 |
| 20260503024324 | 56 | 326 | 2.6 | 3.5 | 0.00 | 0.00 | 0.00 | 63 | 1021.2 |
| 20260503023823 | 56 | 283 | 2.6 | 3.5 | 0.00 | 0.00 | 0.00 | 63 | 1021.3 |
| 20260503023339 | 56 | 275 | 2.6 | 3.5 | 0.00 | 0.00 | 0.00 | 63 | 1021.3 |
| 20260503022818 | 56 | 263 | 2.6 | 3.5 | 0.00 | 0.00 | 0.00 | 63 | 1021.3 |
| 20260503022338 | 56 | 315 | 1.7 | 3.5 | 0.00 | 0.00 | 0.00 | 63 | 1021.3 |
| 20260503021816 | 56 | 272 | 0.9 | 4.3 | 0.00 | 0.00 | 0.00 | 62 | 1021.3 |
| 20260503021315 | 56 | 289 | 2.6 | 4.3 | 0.00 | 0.00 | 0.00 | 64 | 1021.4 |
| 20260503020815 | 57 | 284 | 2.6 | 6.1 | 0.00 | 0.00 | 0.00 | 63 | 1021.3 |
| 20260503020316 | 56 | 316 | 3.5 | 6.1 | 0.00 | 0.00 | 0.00 | 64 | 1021.4 |
| 20260503015816 | 56 | 298 | 5.2 | 7.8 | 0.00 | 0.00 | 0.00 | 63 | 1021.3 |
| 20260503015317 | 56 | 294 | 5.2 | 7.8 | 0.00 | 0.00 | 0.00 | 64 | 1021.4 |
| 20260503014815 | 56 | 290 | 2.6 | 3.5 | 0.00 | 0.00 | 0.00 | 65 | 1021.4 |
| 20260503014315 | 56 | 275 | 1.7 | 2.6 | 0.00 | 0.00 | 0.00 | 65 | 1021.3 |
| 20260503013833 | 56 | 284 | 1.7 | 3.5 | 0.00 | 0.00 | 0.00 | 64 | 1021.5 |
| 20260503013333 | 56 | 315 | 1.7 | 3.5 | 0.00 | 0.00 | 0.00 | 65 | 1021.5 |
| 20260503012815 | 56 | 288 | 2.6 | 3.5 | 0.00 | 0.00 | 0.00 | 65 | 1021.5 |
| 20260503012334 | 56 | 291 | 2.6 | 3.5 | 0.00 | 0.00 | 0.00 | 65 | 1021.5 |
| 20260503011832 | 56 | 305 | 1.7 | 3.5 | 0.00 | 0.00 | 0.00 | 65 | 1021.6 |
| 20260503011330 | 56 | 296 | 0.9 | 3.5 | 0.00 | 0.00 | 0.00 | 63 | 1021.6 |
| 20260503010829 | 56 | 315 | 1.7 | 2.6 | 0.00 | 0.00 | 0.00 | 63 | 1021.7 |
| 20260503010326 | 56 | 314 | 0.9 | 2.6 | 0.00 | 0.00 | 0.00 | 62 | 1021.7 |
| 20260503005824 | 56 | 319 | 1.7 | 2.6 | 0.00 | 0.00 | 0.00 | 63 | 1021.7 |
| 20260503005322 | 56 | 295 | 0.9 | 2.6 | 0.00 | 0.00 | 0.00 | 62 | 1021.8 |
| 20260503004822 | 56 | 293 | 1.7 | 2.6 | 0.00 | 0.00 | 0.00 | 63 | 1021.8 |
| 20260503004342 | 56 | 300 | 1.7 | 2.6 | 0.00 | 0.00 | 0.00 | 63 | 1022.0 |
| 20260503003820 | 56 | 326 | 1.7 | 3.5 | 0.00 | 0.00 | 0.00 | 62 | 1021.9 |
| 20260503003320 | 56 | 316 | 1.7 | 3.5 | 0.00 | 0.00 | 0.00 | 62 | 1021.9 |
| 20260503002818 | 56 | 336 | 1.7 | 3.5 | 0.00 | 0.00 | 0.00 | 62 | 1021.9 |
| 20260503002317 | 56 | 312 | 2.6 | 3.5 | 0.00 | 0.00 | 0.00 | 62 | 1022.0 |
| 20260503001836 | 56 | 279 | 1.7 | 2.6 | 0.00 | 0.00 | 0.00 | 63 | 1022.0 |
| 20260503001335 | 56 | 277 | 1.7 | 2.6 | 0.00 | 0.00 | 0.00 | 63 | 1022.2 |
| 20260503000853 | 56 | 96 | 0.9 | 2.6 | 0.00 | 0.00 | 0.00 | 62 | 1022.2 |
| 20260503000322 | 56 | 351 | 1.7 | 2.6 | 0.00 | 0.00 | 0.00 | 62 | 1022.3 |
| 20260502235821 | 56 | 292 | 1.7 | 2.6 | 0.00 | 0.00 | 0.00 | 62 | 1022.3 |
| 20260502235319 | 56 | 311 | 1.7 | 2.6 | 0.00 | 0.00 | 0.00 | 62 | 1022.3 |
| 20260502234829 | 57 | 308 | 0.9 | 1.7 | 0.00 | 0.00 | 0.00 | 61 | 1022.4 |
| 20260502234328 | 57 | 337 | 1.7 | 1.7 | 0.00 | 0.00 | 0.00 | 60 | 1022.4 |
| 20260502233826 | 57 | 11 | 0.9 | 1.7 | 0.00 | 0.00 | 0.00 | 59 | 1022.5 |
| 20260502233324 | 57 | 312 | 0.9 | 3.5 | 0.00 | 0.00 | 0.00 | 59 | 1022.6 |
| 20260502232841 | 57 | 350 | 0.9 | 3.5 | 0.00 | 0.00 | 0.00 | 59 | 1022.6 |
| 20260502232338 | 57 | 308 | 1.7 | 2.6 | 0.00 | 0.00 | 0.00 | 59 | 1022.6 |
| 20260502231824 | 57 | 296 | 1.7 | 2.6 | 0.00 | 0.00 | 0.00 | 58 | 1022.6 |
| 20260502231332 | 57 | 300 | 1.7 | 2.6 | 0.00 | 0.00 | 0.00 | 58 | 1022.6 |
| 20260502230832 | 57 | 281 | 1.7 | 2.6 | 0.00 | 0.00 | 0.00 | 58 | 1022.8 |
| 20260502230321 | 57 | 284 | 1.7 | 2.6 | 0.00 | 0.00 | 0.00 | 59 | 1022.7 |
| 20260502225821 | 57 | 302 | 1.7 | 2.6 | 0.00 | 0.00 | 0.00 | 59 | 1022.8 |
| 20260502225321 | 57 | 340 | 1.7 | 2.6 | 0.00 | 0.00 | 0.00 | 58 | 1022.8 |
| 20260502224819 | 57 | 344 | 1.7 | 2.6 | 0.00 | 0.00 | 0.00 | 57 | 1022.8 |
| 20260502224318 | 58 | 309 | 1.7 | 2.6 | 0.00 | 0.00 | 0.00 | 57 | 1022.8 |
| 20260502223816 | 58 | 306 | 0.9 | 2.6 | 0.00 | 0.00 | 0.00 | 56 | 1022.8 |
| 20260502223314 | 58 | 283 | 1.7 | 2.6 | 0.00 | 0.00 | 0.00 | 57 | 1022.9 |
| 20260502222813 | 58 | 277 | 0.9 | 2.6 | 0.00 | 0.00 | 0.00 | 57 | 1022.9 |
| 20260502222332 | 58 | 281 | 1.7 | 3.5 | 0.00 | 0.00 | 0.00 | 55 | 1022.9 |
| 20260502221829 | 58 | 250 | 1.7 | 3.5 | 0.00 | 0.00 | 0.00 | 55 | 1022.9 |
| 20260502221327 | 58 | 279 | 1.7 | 2.6 | 0.00 | 0.00 | 0.00 | 56 | 1022.9 |
| 20260502220829 | 58 | 305 | 0.9 | 2.6 | 0.00 | 0.00 | 0.00 | 55 | 1022.8 |
| 20260502220358 | 58 | 305 | 1.7 | 2.6 | 0.00 | 0.00 | 0.00 | 54 | 1022.9 |
| 20260502215831 | 58 | 302 | 0.9 | 2.6 | 0.00 | 0.00 | 0.00 | 55 | 1022.8 |
| 20260502215313 | 58 | 282 | 0.9 | 2.6 | 0.00 | 0.00 | 0.00 | 55 | 1022.8 |
| 20260502214812 | 58 | 289 | 1.7 | 2.6 | 0.00 | 0.00 | 0.00 | 57 | 1022.8 |
| 20260502214312 | 58 | 321 | 1.7 | 2.6 | 0.00 | 0.00 | 0.00 | 55 | 1022.8 |
| 20260502213813 | 58 | 261 | 1.7 | 2.6 | 0.00 | 0.00 | 0.00 | 56 | 1022.8 |
| 20260502213341 | 58 | 318 | 0.9 | 2.6 | 0.00 | 0.00 | 0.00 | 55 | 1022.8 |
| 20260502212819 | 59 | 313 | 1.7 | 2.6 | 0.00 | 0.00 | 0.00 | 54 | 1022.9 |
| 20260502212318 | 59 | 311 | 1.7 | 2.6 | 0.00 | 0.00 | 0.00 | 54 | 1022.8 |
| 20260502211819 | 59 | 308 | 1.7 | 1.7 | 0.00 | 0.00 | 0.00 | 53 | 1022.7 |
| 20260502211320 | 59 | 230 | 0.9 | 1.7 | 0.00 | 0.00 | 0.00 | 54 | 1022.7 |
| 20260502210818 | 59 | 281 | 0.9 | 2.6 | 0.00 | 0.00 | 0.00 | 52 | 1022.7 |
| 20260502210318 | 59 | 311 | 1.7 | 2.6 | 0.00 | 0.00 | 0.00 | 52 | 1022.8 |
| 20260502205818 | 60 | 315 | 0.0 | 3.5 | 0.00 | 0.00 | 0.00 | 51 | 1022.8 |
| 20260502205319 | 60 | 315 | 1.7 | 3.5 | 0.00 | 0.00 | 0.00 | 51 | 1022.8 |
| 20260502204848 | 59 | 5 | 2.6 | 3.5 | 0.00 | 0.00 | 0.00 | 51 | 1022.8 |
| 20260502204327 | 59 | 10 | 0.9 | 2.6 | 0.00 | 0.00 | 0.00 | 52 | 1022.8 |
| 20260502203827 | 59 | 321 | 1.7 | 1.7 | 0.00 | 0.00 | 0.00 | 52 | 1022.8 |
| 20260502203342 | 59 | 294 | 0.9 | 2.6 | 0.00 | 0.00 | 0.00 | 52 | 1022.7 |
| 20260502202822 | 59 | 288 | 0.9 | 2.6 | 0.00 | 0.00 | 0.00 | 52 | 1022.7 |
| 20260502202321 | 59 | 286 | 0.9 | 2.6 | 0.00 | 0.00 | 0.00 | 53 | 1022.7 |
| 20260502201822 | 60 | 324 | 0.9 | 2.6 | 0.00 | 0.00 | 0.00 | 52 | 1022.8 |
| 20260502201322 | 60 | 313 | 0.0 | 2.6 | 0.00 | 0.00 | 0.00 | 52 | 1022.9 |
| 20260502200822 | 60 | 306 | 1.7 | 3.5 | 0.00 | 0.00 | 0.00 | 51 | 1022.9 |
| 20260502200321 | 60 | 297 | 2.6 | 3.5 | 0.00 | 0.00 | 0.00 | 50 | 1022.8 |
| 20260502195849 | 60 | 342 | 0.9 | 1.7 | 0.00 | 0.00 | 0.00 | 50 | 1022.8 |
| 20260502195326 | 60 | 309 | 0.9 | 1.7 | 0.00 | 0.00 | 0.00 | 51 | 1022.7 |
| 20260502194825 | 60 | 290 | 0.9 | 2.6 | 0.00 | 0.00 | 0.00 | 51 | 1022.9 |
| 20260502194326 | 60 | 323 | 1.7 | 2.6 | 0.00 | 0.00 | 0.00 | 51 | 1022.7 |
| 20260502193825 | 60 | 297 | 0.9 | 3.5 | 0.00 | 0.00 | 0.00 | 49 | 1022.7 |
| 20260502193326 | 60 | 301 | 0.9 | 3.5 | 0.00 | 0.00 | 0.00 | 50 | 1022.8 |
| 20260502192825 | 61 | 313 | 0.0 | 1.7 | 0.00 | 0.00 | 0.00 | 51 | 1022.7 |
| 20260502192342 | 61 | 313 | 0.9 | 2.6 | 0.00 | 0.00 | 0.00 | 51 | 1022.7 |
| 20260502191821 | 61 | 288 | 0.0 | 3.5 | 0.00 | 0.00 | 0.00 | 51 | 1022.7 |
| 20260502191323 | 61 | 298 | 2.6 | 3.5 | 0.00 | 0.00 | 0.00 | 50 | 1022.6 |
| 20260502190822 | 61 | 250 | 0.9 | 3.5 | 0.00 | 0.00 | 0.00 | 50 | 1022.6 |
| 20260502190321 | 61 | 317 | 1.7 | 3.5 | 0.00 | 0.00 | 0.00 | 48 | 1022.6 |
| 20260502185820 | 62 | 267 | 2.6 | 5.2 | 0.00 | 0.00 | 0.00 | 48 | 1022.5 |
| 20260502185320 | 62 | 279 | 2.6 | 5.2 | 0.00 | 0.00 | 0.00 | 47 | 1022.5 |
| 20260502184819 | 62 | 248 | 3.5 | 5.2 | 0.00 | 0.00 | 0.00 | 46 | 1022.5 |
| 20260502184313 | 62 | 283 | 3.5 | 6.1 | 0.00 | 0.00 | 0.00 | 47 | 1022.4 |
| 20260502183833 | 62 | 269 | 3.5 | 6.1 | 0.00 | 0.00 | 0.00 | 47 | 1022.5 |
| 20260502183332 | 62 | 288 | 2.6 | 6.1 | 0.00 | 0.00 | 0.00 | 46 | 1022.3 |
| 20260502182851 | 62 | 277 | 3.5 | 7.0 | 0.00 | 0.00 | 0.00 | 47 | 1022.3 |
| 20260502182348 | 62 | 275 | 4.3 | 7.0 | 0.00 | 0.00 | 0.00 | 46 | 1022.3 |
| 20260502181825 | 62 | 257 | 3.5 | 6.1 | 0.00 | 0.00 | 0.00 | 47 | 1022.2 |
| 20260502181324 | 63 | 259 | 3.5 | 7.0 | 0.00 | 0.00 | 0.00 | 46 | 1022.3 |
| 20260502180824 | 63 | 296 | 4.3 | 7.8 | 0.00 | 0.00 | 0.00 | 46 | 1022.2 |
| 20260502180323 | 63 | 298 | 3.5 | 7.8 | 0.00 | 0.00 | 0.00 | 46 | 1022.2 |
| 20260502170333 | 64 | 304 | 4.3 | 6.1 | 0.00 | 0.00 | 0.00 | 47 | 1022.2 |
| 20260502164328 | 65 | 313 | 3.5 | 6.1 | 0.00 | 0.00 | 0.00 | 45 | 1022.3 |
| 20260502163828 | 65 | 292 | 3.5 | 6.1 | 0.00 | 0.00 | 0.00 | 46 | 1022.3 |
| 20260502163328 | 65 | 309 | 3.5 | 7.0 | 0.00 | 0.00 | 0.00 | 45 | 1022.3 |
| 20260502162827 | 66 | 300 | 3.5 | 7.0 | 0.00 | 0.00 | 0.00 | 45 | 1022.3 |
| 20260502162324 | 66 | 287 | 3.5 | 6.1 | 0.00 | 0.00 | 0.00 | 45 | 1022.5 |
| 20260502161823 | 66 | 312 | 1.7 | 6.1 | 0.00 | 0.00 | 0.00 | 44 | 1022.5 |
| 20260502161323 | 67 | 294 | 2.6 | 4.3 | 0.00 | 0.00 | 0.00 | 43 | 1022.5 |
| 20260502160843 | 67 | 306 | 1.7 | 4.3 | 0.00 | 0.00 | 0.00 | 43 | 1022.5 |
| 20260502160323 | 67 | 341 | 3.5 | 4.3 | 0.00 | 0.00 | 0.00 | 43 | 1022.5 |
| 20260502151830 | 67 | 95 | 2.6 | 5.2 | 0.00 | 0.00 | 0.00 | 43 | 1022.9 |
| 20260502151328 | 67 | 117 | 2.6 | 7.0 | 0.00 | 0.00 | 0.00 | 44 | 1022.9 |
| 20260502150826 | 66 | 93 | 3.5 | 7.8 | 0.00 | 0.00 | 0.00 | 44 | 1023.0 |
| 20260502150326 | 67 | 85 | 3.5 | 6.1 | 0.00 | 0.00 | 0.00 | 43 | 1023.0 |
| 20260502130317 | 66 | 67 | 5.2 | 10.4 | 0.00 | 0.00 | 0.00 | 45 | 1024.3 |
| 20260502123329 | 65 | 92 | 5.2 | 9.6 | 0.00 | 0.00 | 0.00 | 46 | 1024.6 |
| 20260502122827 | 65 | 102 | 3.5 | 9.6 | 0.00 | 0.00 | 0.00 | 48 | 1024.6 |
| 20260502122327 | 65 | 93 | 4.3 | 9.6 | 0.00 | 0.00 | 0.00 | 47 | 1024.6 |
| 20260502121825 | 65 | 88 | 2.6 | 9.6 | 0.00 | 0.00 | 0.00 | 48 | 1024.8 |
| 20260502121324 | 65 | 105 | 5.2 | 7.8 | 0.00 | 0.00 | 0.00 | 47 | 1024.9 |
| 20260502120823 | 65 | 113 | 3.5 | 7.8 | 0.00 | 0.00 | 0.00 | 48 | 1024.9 |
| 20260502120343 | 65 | 134 | 4.3 | 7.8 | 0.00 | 0.00 | 0.00 | 47 | 1024.9 |
| 20260502115820 | 65 | 117 | 4.3 | 9.6 | 0.00 | 0.00 | 0.00 | 47 | 1025.0 |
| 20260502115341 | 64 | 96 | 5.2 | 9.6 | 0.00 | 0.00 | 0.00 | 49 | 1025.2 |
| 20260502114819 | 64 | 112 | 5.2 | 8.7 | 0.00 | 0.00 | 0.00 | 48 | 1025.1 |
| 20260502114319 | 63 | 106 | 5.2 | 9.6 | 0.00 | 0.00 | 0.00 | 48 | 1025.2 |
| 20260502113839 | 64 | 114 | 5.2 | 10.4 | 0.00 | 0.00 | 0.00 | 48 | 1025.3 |
| 20260502113338 | 63 | 134 | 6.1 | 12.2 | 0.00 | 0.00 | 0.00 | 49 | 1025.3 |
| 20260502112817 | 63 | 126 | 6.1 | 11.3 | 0.00 | 0.00 | 0.00 | 49 | 1025.3 |
| 20260502112317 | 63 | 60 | 6.1 | 11.3 | 0.00 | 0.00 | 0.00 | 48 | 1025.6 |
| 20260502111816 | 63 | 138 | 6.1 | 11.3 | 0.00 | 0.00 | 0.00 | 50 | 1025.6 |
| 20260502111315 | 63 | 32 | 7.0 | 10.4 | 0.00 | 0.00 | 0.00 | 49 | 1025.7 |
| 20260502110815 | 63 | 87 | 6.1 | 12.2 | 0.00 | 0.00 | 0.00 | 50 | 1025.7 |
| 20260502110335 | 63 | 80 | 7.0 | 11.3 | 0.00 | 0.00 | 0.00 | 50 | 1025.8 |
| 20260502105833 | 62 | 96 | 7.0 | 12.2 | 0.00 | 0.00 | 0.00 | 51 | 1025.9 |
| 20260502105332 | 62 | 104 | 8.7 | 12.2 | 0.00 | 0.00 | 0.00 | 50 | 1026.0 |
| 20260502104853 | 62 | 56 | 5.2 | 10.4 | 0.00 | 0.00 | 0.00 | 52 | 1026.0 |
| 20260502104332 | 63 | 97 | 7.0 | 11.3 | 0.00 | 0.00 | 0.00 | 53 | 1026.1 |
| 20260502103830 | 62 | 59 | 6.1 | 11.3 | 0.00 | 0.00 | 0.00 | 54 | 1026.2 |
| 20260502103328 | 62 | 95 | 6.1 | 9.6 | 0.00 | 0.00 | 0.00 | 55 | 1026.1 |
| 20260502102828 | 62 | 104 | 4.3 | 8.7 | 0.00 | 0.00 | 0.00 | 55 | 1026.3 |
| 20260502102321 | 62 | 111 | 6.1 | 11.3 | 0.00 | 0.00 | 0.00 | 53 | 1026.4 |
| 20260502101821 | 62 | 92 | 7.0 | 11.3 | 0.00 | 0.00 | 0.00 | 52 | 1026.3 |
| 20260502101319 | 62 | 79 | 4.3 | 7.0 | 0.00 | 0.00 | 0.00 | 54 | 1026.5 |
| 20260502100817 | 62 | 83 | 2.6 | 7.8 | 0.00 | 0.00 | 0.00 | 53 | 1026.5 |
| 20260502100318 | 61 | 84 | 3.5 | 7.8 | 0.00 | 0.00 | 0.00 | 56 | 1026.5 |
| 20260502091318 | 61 | 140 | 4.3 | 7.8 | 0.00 | 0.00 | 0.00 | 54 | 1026.8 |
| 20260502090817 | 61 | 153 | 2.6 | 5.2 | 0.00 | 0.00 | 0.00 | 54 | 1027.4 |
| 20260502090316 | 60 | 158 | 2.6 | 5.2 | 0.00 | 0.00 | 0.00 | 57 | 1027.0 |